Flag for U.S.A. Weather past 2 weeks in Cleveland, Tennessee, U.S.A.

Now
54 °F

Scattered clouds.


Feels Like: 54 °F
Forecast: 49 / 81 °F
Wind: No wind

Location: Lovell Field

Current Time: May 23, 2015 at 8:37:11 AM

Latest Report: May 23, 2015 at 7:53 AM


Visibility: 10 mi

Pressure: 30.37 "Hg

Humidity: 83%

Dew point: 49 °F

Location of ClevelandLocation

Historic Weather in Cleveland — Graph

°F

Cleveland temperature yesterday

Maximum temperature yesterday: 75 °F (at 5:53 PM)
Minimum temperature yesterday: 51 °F (at 5:53 AM)
Average temperature yesterday: 62 °F

Past Weeks' High & Low Weather Summary

 TemperatureHumidityPressure
High90 °F (May 11, 2:53 PM)97% (May 17, 4:53 AM)30.34 "Hg (May 17, 4:53 AM)
Low50 °F (May 23, 5:53 AM)24% (May 13, 5:53 PM)29.86 "Hg (May 20, 10:53 PM)
Average72 °F66%30.12 "Hg
* Reported May 8 6:53 AM — May 23 6:53 AM, Cleveland, Weather by CustomWeather, © 2015

Note: Actual official high and low records may vary slightly from our data, if they occured in-between our weather recording intervals... More about our weather records

Advertising

Cleveland weather history for previous 24 hours

 ConditionsComfort  
Time TempWeatherWind HumidityBarometerVisibility
6:53 AM
Sat, May 23
50 °FPassing clouds.No wind89%30.34 "Hg10 mi
5:53 AM50 °FClear.No wind89%30.31 "Hg10 mi
4:53 AM51 °FClear.No wind89%30.28 "Hg10 mi
3:53 AM52 °FClear.No wind89%30.26 "Hg10 mi
2:53 AM52 °FClear.No wind89%30.27 "Hg10 mi
1:53 AM55 °FClear.No wind83%30.27 "Hg10 mi
12:53 AM55 °FClear.No wind83%30.27 "Hg10 mi
11:53 PM
Fri, May 22
57 °FPassing clouds.No wind78%30.26 "Hg10 mi
10:53 PM60 °FPassing clouds.No wind67%30.27 "Hg10 mi
9:53 PM61 °FPartly cloudy.3 mph65%30.26 "Hg10 mi
8:53 PM69 °FBroken clouds.5 mph39%30.24 "Hg10 mi
7:53 PM72 °FScattered clouds.9 mph33%30.22 "Hg10 mi
6:53 PM74 °FScattered clouds.9 mph29%30.21 "Hg10 mi
5:53 PM75 °FScattered clouds.7 mph26%30.22 "Hg10 mi
4:53 PM74 °FScattered clouds.12 mph24%30.22 "Hg10 mi
3:53 PM74 °FScattered clouds.13 mph35%30.23 "Hg10 mi
2:53 PM71 °FScattered clouds.13 mph39%30.23 "Hg10 mi
1:53 PM71 °FScattered clouds.14 mph39%30.24 "Hg10 mi
12:53 PM67 °FScattered clouds.8 mph45%30.25 "Hg10 mi
11:53 AM65 °FScattered clouds.13 mph45%30.27 "Hg10 mi
10:53 AM63 °FScattered clouds.15 mph50%30.27 "Hg10 mi
9:53 AM60 °FScattered clouds.15 mph53%30.27 "Hg10 mi
8:53 AM58 °FPassing clouds.16 mph58%30.24 "Hg10 mi
Weather by CustomWeather, © 2015

See weather overviewHow to use our weather pages